星链-30993 (STARLINK-30993 )

导读

STARLINK-30993是美国SpaceX公司星链星座的成员卫星,于2023年12月3日发射入轨,属于星链全球卫星互联网星座的扩建卫星。星链项目计划构建万颗规模低轨卫星星座,为全球偏远地区、海洋空域提供高速低延迟宽带服务,该卫星当前在轨运行,助力拓展星链星座覆盖能力,不过低轨大规模星座也引发了对太空资源拥堵的讨论。

基本信息
目录编号:
58489
目录名称:
STARLINK-30993
国际标识:
2023-186S
轨道中心:
EARTH
卫星名称:
星链-30993
卫星全名:
星链-30993 (STARLINK-30993 )
卫星状态:
在轨 (已飞行928 天)
发射日期:
2023-12-03 UTC
国别 :
美国 (US)
星等 :
--
轨道信息
数据来源 国际轨道数据 AOE轨道数据
星历时间 2026-06-16T05:18:27+0800
2天前
查看轨道信息
2026-06-17T07:00:00+0800
1天前
查看轨道信息
半长轴 6861.217km 6861.214km
偏心率 0.0000305 0.0000504
轨道倾角 42.982° 43.000°
近地点辐角 264.750° 320.792°
升交点赤经 229.139° 223.094°
平近点角 95.332° 173.224°
近地点 482.87km 482.731km
远地点 483.29km 483.423km
周期 94.267分钟 94.267分钟
每日圈数 15.275697 15.275708
详细信息
固有亮度:
5
最大亮度:
0.3
卫星平台:
Starlink v2.0 mini
覆盖范围:
全球
运营商:
太空探索技术公司
运营商所在国:
美国
制造商(研发单位):
太空探索技术公司
制造商所在国:
美国
使用方式:
暂无
卫星简介
星链(Starlink)计划是由太空探索技术公司(SpaceX)提出的一个巨型低轨卫星互联网星座项目,计划在2019年至2024年间在太空搭建由约1.2万颗卫星组成的“星链”网络,其中1584颗将部署在地球上空550千米处的近地轨道,并从2020年开始工作。该卫星仍在工作。
2D轨道图
3D轨道图
轨道高度分析图
轨道倾角分析图
轨道综合分析图
查看轨道综合分析图